Showing default

PROGRESS MS-34, 68837

Orbit data source: Space-Track

PROGRESS MS-34, 68837 is a payload satellite owned by RKKE (CIS) in LEO that was launched on Sat, 25 Apr 2026 UTC via a SOYUZ-2-1A launch vehicle from the Tyuratam Missile And Space Complex (TTMTR). Payload-class satellites include a variety of spacecraft equipped with specific instruments for various scientific and technological missions. These include communications satellites like Starlink; space stations such as the ISS; scientific satellites like the Hubble; Earth observation satellites from companies like Planet Labs, Umbra, and HawkEye 360; GPS; miniature CubeSats for education and research; and military/defense satellites.

Loading next visibility...
Identifier
68837, 2026-093A
Orbit
LEO
Country
Flag of CISCIS
Related business
Manufacturer
TsSKB-Progress
Mission
Operational spacecraft
Bus & Motor
7K-TGM, 11D428A
Mass
7,419 kg wet, 4,325 kg dry
Launch date (UTC)
2026-04-25 (2 months ago)
Launch vehicle
SOYUZ-2-1A
Launch site
Tyuratam Missile And Space Complex (TTMTR)
Object type
Payload
Rocket body
Debris
Shape & HBR
Unknown shape, 14.5 m
Radar Cross Section
Large (>1 m²)

Expand to show TLE details & history
Last TLE update: 20 hours ago

TLE from 20 hours ago
0 PROGRESS MS-34
1 68837U 26093A   26171.15661001  .00008669  00000-0  16345-3 0  9990
2 68837  51.6329 285.3962 0004555 207.7610 152.3136 15.49327998572199
Epoch: 2026-06-20T03:45Z
TLE epoch observation values (Epoch: 2026-06-20T03:45:31.104Z)
Latitude
-0.00004°
Longitude
-39.35871°
Altitude
422.173 km
Speed
7.658 km/s
True Right ascension
19h 01m 35s
True Declination
0° 00' 00"
Sunlit
Object was in full shadow at epoch
Visualization orbit readout
Latitude
Unknown
Longitude
Unknown
Altitude
Unknown
Speed
Unknown
Apparent Right ascension
Unknown
Apparent Declination
Unknown
Sunlit
N/A
Visualization observer readout
Local Sidereal Time
10:19:34
Azimuth
Unknown
Elevation
Unknown
Doppler factor
Unknown
Orbital elements
Apogee altitude
422.296 km
Perigee altitude
416.103 km
Semi-major axis
6,797.337 km
Eccentricity
0.00046
Inclination
51.6329°
RAAN
285.3962°
Arg. of periapsis
207.761°
True anomaly
152.33784°
Mean anomaly
152.3136°
Eccentric anomaly
152.32572°
Mean motion
3.87289 °/min
Orbital period
92.95 mins
BSTAR
0.00016345
Loading maneuver chart data...
Computing Atmospheric mass density...
Loading historical data...
Loading historical data...
Loading historical data...
Loading historical data...
Loading historical data...
Loading historical data...
Loading historical data...
Other satellites on launch #93 in the year 2026 (2026-04-25 UTC)

Documentation

Showing up to 5 results
|